Data No, UTC Date,UTC Time,Latitude,Longitude,Course(deg),Temp(degC),Sal(psu),pH
716,9/3/2019,11:55,35-35.95N,139-47.35E,212,26.98,,8.57
717,9/3/2019,11:56,35-35.73N,139-47.24E,198,27.011,,8.54
718,9/3/2019,11:57,35-35.58N,139-47.21E,183,27.172,,8.51
719,9/3/2019,11:58,35-35.39N,139-47.28E,154,---,,8.47
720,9/3/2019,11:59,35-35.23N,139-47.43E,138,27.388,,8.45
721,9/3/2019,12:00,35-35.06N,139-47.61E,139,27.108,,8.47
722,9/3/2019,12:01,35-34.88N,139-47.79E,141,27.037,,8.5
723,9/3/2019,12:02,35-34.70N,139-47.99E,135,27.134,,8.46
724,9/3/2019,12:03,35-34.52N,139-48.23E,133,27.232,,8.41
725,9/3/2019,12:04,35-34.39N,139-48.39E,132,27.267,,8.39
726,9/3/2019,12:05,35-34.23N,139-48.60E,133,27.057,,8.39
727,9/3/2019,12:06,35-34.07N,139-48.85E,129,27.049,,8.39
728,9/3/2019,12:07,35-33.91N,139-49.10E,128,27.053,,8.38
729,9/3/2019,12:08,35-33.74N,139-49.36E,128,27.145,,8.36
730,9/3/2019,12:09,35-33.56N,139-49.65E,128,27.098,,8.34
731,9/3/2019,12:10,35-33.38N,139-49.91E,128,27.309,,8.34
732,9/3/2019,12:11,35-33.20N,139-50.21E,127,27.184,,8.36
733,9/3/2019,12:12,35-33.02N,139-50.47E,130,27.067,,8.39
734,9/3/2019,12:13,35-32.79N,139-50.69E,151,27.034,,8.42
735,9/3/2019,12:14,35-32.49N,139-50.77E,172,27.137,,8.42
736,9/3/2019,12:15,35-32.18N,139-50.80E,175,27.226,,8.41
737,9/3/2019,12:16,35-31.87N,139-50.83E,176,27.17,,8.41
738,9/3/2019,12:17,35-31.57N,139-50.86E,176,27.131,,8.42
739,9/3/2019,12:18,35-31.26N,139-50.89E,175,27.124,,8.42
740,9/3/2019,12:19,35-30.95N,139-50.91E,175,27.138,,8.41
741,9/3/2019,12:20,35-30.64N,139-50.94E,176,27.084,,8.4
742,9/3/2019,12:21,35-30.34N,139-50.96E,176,27.018,,8.39
743,9/3/2019,12:22,35-30.02N,139-50.97E,183,26.991,,8.38
744,9/3/2019,12:23,35-29.72N,139-50.84E,208,26.983,,8.36
745,9/3/2019,12:24,35-29.47N,139-50.61E,216,26.959,,8.34
746,9/3/2019,12:25,35-29.22N,139-50.39E,214,27.058,,8.33
747,9/3/2019,12:26,35-28.97N,139-50.12E,224,27.053,,8.3
748,9/3/2019,12:27,35-28.76N,139-49.85E,228,26.825,,8.29
749,9/3/2019,12:28,35-28.55N,139-49.55E,229,26.682,,8.3
750,9/3/2019,12:29,35-28.33N,139-49.25E,227,26.728,,8.3
751,9/3/2019,12:30,35-28.12N,139-48.97E,227,26.709,,8.3
752,9/3/2019,12:31,35-27.91N,139-48.67E,230,26.795,,8.3
753,9/3/2019,12:32,35-27.70N,139-48.35E,231,26.844,,8.29
754,9/3/2019,12:33,35-27.50N,139-48.04E,231,26.835,,8.3
755,9/3/2019,12:34,35-27.30N,139-47.72E,232,26.709,,8.3
756,9/3/2019,12:35,35-27.11N,139-47.40E,232,26.894,,8.32
757,9/3/2019,12:36,35-26.92N,139-47.06E,237,26.924,,8.32
758,9/3/2019,12:37,35-26.75N,139-46.72E,239,26.882,,8.33
759,9/3/2019,12:38,35-26.59N,139-46.37E,239,26.848,,8.34
760,9/3/2019,12:39,35-26.42N,139-46.02E,239,26.896,,8.37
761,9/3/2019,12:40,35-26.25N,139-45.67E,237,26.978,,8.37
762,9/3/2019,12:41,35-26.06N,139-45.33E,235,26.957,,8.39
763,9/3/2019,12:42,35-25.87N,139-45.01E,235,26.999,,8.4
764,9/3/2019,12:43,35-25.68N,139-44.67E,235,26.959,,8.41
765,9/3/2019,12:44,35-25.49N,139-44.33E,235,26.953,,8.43
766,9/3/2019,12:45,35-25.30N,139-43.99E,235,27.029,,8.43
767,9/3/2019,12:46,35-25.11N,139-43.66E,235,27.019,,8.43
768,9/3/2019,12:47,35-24.89N,139-43.40E,214,26.968,,8.44
769,9/3/2019,12:48,35-24.61N,139-43.23E,206,26.952,,8.45
770,9/3/2019,12:49,35-24.31N,139-43.05E,206,26.974,,8.46
771,9/3/2019,12:50,35-24.01N,139-42.87E,206,26.983,,8.45
772,9/3/2019,12:51,35-23.73N,139-42.70E,205,26.994,,8.45
773,9/3/2019,12:52,35-23.43N,139-42.53E,206,27.023,,8.45
774,9/3/2019,12:53,35-23.14N,139-42.36E,200,27.016,,8.45
775,9/3/2019,12:54,35-22.82N,139-42.33E,183,27.016,,8.45
776,9/3/2019,12:55,35-22.50N,139-42.31E,181,26.996,,8.45
777,9/3/2019,12:56,35-22.17N,139-42.30E,182,26.972,,8.45
778,9/3/2019,12:57,35-21.85N,139-42.28E,182,26.923,,8.45
779,9/3/2019,12:58,35-21.52N,139-42.27E,182,26.886,,8.45
780,9/3/2019,12:59,35-21.20N,139-42.25E,181,26.763,,8.44
781,9/3/2019,13:00,35-20.87N,139-42.24E,181,26.679,,8.43
782,9/3/2019,13:01,35-20.54N,139-42.23E,181,26.677,,8.41
783,9/3/2019,13:02,35-20.25N,139-42.22E,182,26.588,,8.39
784,9/3/2019,13:03,35-20.02N,139-42.28E,158,26.596,,8.39
785,9/3/2019,13:04,35-19.83N,139-42.40E,154,26.671,,8.38
786,9/3/2019,13:05,35-19.64N,139-42.51E,154,26.657,,8.38
787,9/3/2019,13:06,35-19.46N,139-42.62E,154,26.566,,8.39
788,9/3/2019,13:07,35-19.27N,139-42.73E,154,26.511,,8.38
789,9/3/2019,13:08,35-19.09N,139-42.86E,149,26.547,,8.37
790,9/3/2019,13:09,35-18.91N,139-42.99E,149,26.401,,8.37
791,9/3/2019,13:10,35-18.72N,139-43.12E,149,26.263,,8.36
792,9/3/2019,13:11,35-18.54N,139-43.26E,146,26.016,,8.34
793,9/3/2019,13:12,35-18.36N,139-43.40E,145,25.92,,8.33
794,9/3/2019,13:13,35-18.20N,139-43.56E,140,25.89,,8.32
795,9/3/2019,13:14,35-18.03N,139-43.73E,140,26.067,,8.3
796,9/3/2019,13:15,35-17.86N,139-43.91E,135,26.115,,8.3
797,9/3/2019,13:16,35-17.71N,139-44.11E,130,26.111,,8.3
798,9/3/2019,13:17,35-17.57N,139-44.32E,128,26.075,,8.3
799,9/3/2019,13:18,35-17.41N,139-44.52E,140,25.997,,8.3
800,9/3/2019,13:19,35-17.24N,139-44.70E,139,25.474,,8.3
801,9/3/2019,13:20,35-17.04N,139-44.87E,146,25.449,,8.3
802,9/3/2019,13:21,35-16.86N,139-45.02E,144,25.365,,8.28
803,9/3/2019,13:22,35-16.68N,139-45.18E,143,25.017,,8.27
804,9/3/2019,13:23,35-16.50N,139-45.34E,143,25.204,,8.27
805,9/3/2019,13:24,35-16.32N,139-45.50E,143,25.222,,8.26
806,9/3/2019,13:25,35-16.14N,139-45.67E,143,25.372,,8.26
807,9/3/2019,13:26,35-15.96N,139-45.83E,144,25.451,,8.25
808,9/3/2019,13:27,35-15.77N,139-45.99E,144,25.455,,8.26
809,9/3/2019,13:28,35-15.58N,139-46.15E,147,25.442,,8.26
810,9/3/2019,13:29,35-15.37N,139-46.25E,165,25.437,,8.27
811,9/3/2019,13:30,35-15.14N,139-46.28E,176,25.517,,8.27
812,9/3/2019,13:31,35-14.92N,139-46.30E,176,25.367,,8.27
813,9/3/2019,13:32,35-14.70N,139-46.31E,176,25.344,,8.27
814,9/3/2019,13:33,35-14.48N,139-46.32E,177,25.5,,8.26
815,9/3/2019,13:34,35-14.26N,139-46.33E,178,25.542,,8.24
816,9/3/2019,13:35,35-14.04N,139-46.34E,179,25.438,,8.24
817,9/3/2019,13:36,35-13.82N,139-46.34E,179,25.492,,8.23
818,9/3/2019,13:37,35-13.60N,139-46.34E,180,26.163,,8.24
819,9/3/2019,13:38,35-13.37N,139-46.34E,180,26.402,,8.23
820,9/3/2019,13:39,35-13.16N,139-46.34E,181,26.274,,8.24
821,9/3/2019,13:40,35-12.94N,139-46.32E,184,26.263,,8.27
822,9/3/2019,13:41,35-12.69N,139-46.27E,193,26.209,,8.3
823,9/3/2019,13:42,35-12.42N,139-46.18E,194,25.676,,8.31
824,9/3/2019,13:43,35-12.14N,139-46.09E,194,25.651,,8.32
825,9/3/2019,13:44,35-11.85N,139-46.00E,194,25.532,,8.3
826,9/3/2019,13:45,35-11.56N,139-45.91E,194,25.384,,8.3
827,9/3/2019,13:46,35-11.25N,139-45.81E,194,25.375,,8.3
828,9/3/2019,13:47,35-10.97N,139-45.73E,194,25.374,,8.3
829,9/3/2019,13:48,35-10.67N,139-45.63E,193,25.527,,8.3
830,9/3/2019,13:49,35-10.38N,139-45.54E,194,25.375,,8.29
831,9/3/2019,13:50,35-10.09N,139-45.45E,194,25.469,,8.29
832,9/3/2019,13:51,35-09.80N,139-45.35E,193,25.495,,8.3
833,9/3/2019,13:52,35-09.50N,139-45.27E,194,25.441,,8.29
834,9/3/2019,13:53,35-09.21N,139-45.17E,194,25.378,,8.29
835,9/3/2019,13:54,35-08.92N,139-45.08E,194,25.438,,8.29
836,9/3/2019,13:55,35-08.63N,139-44.99E,194,25.455,,8.28
837,9/3/2019,13:56,35-08.35N,139-44.90E,193,25.342,,8.27
838,9/3/2019,13:57,35-08.06N,139-44.81E,194,25.425,,8.27
839,9/3/2019,13:58,35-07.76N,139-44.72E,194,25.627,,8.27
840,9/3/2019,13:59,35-07.48N,139-44.63E,193,25.402,,8.26
841,9/3/2019,14:00,35-07.20N,139-44.55E,194,25.536,,8.26
842,9/3/2019,14:01,35-06.92N,139-44.46E,194,25.587,,8.27
843,9/3/2019,14:02,35-06.64N,139-44.37E,194,25.665,,8.26
844,9/3/2019,14:03,35-06.36N,139-44.28E,194,25.757,,8.26
845,9/3/2019,14:04,35-06.07N,139-44.19E,193,25.985,,8.25
846,9/3/2019,14:05,35-05.79N,139-44.09E,197,26.23,,8.24
847,9/3/2019,14:06,35-05.52N,139-43.97E,199,26.104,,8.23
848,9/3/2019,14:07,35-05.25N,139-43.86E,199,25.926,,8.23
849,9/3/2019,14:08,35-04.98N,139-43.74E,199,25.896,,8.22
850,9/3/2019,14:09,35-04.71N,139-43.62E,200,25.725,,8.22
851,9/3/2019,14:10,35-04.43N,139-43.49E,200,25.755,,8.21
852,9/3/2019,14:11,35-04.16N,139-43.37E,200,25.573,,8.21
853,9/3/2019,14:12,35-03.88N,139-43.24E,200,25.509,,8.21
854,9/3/2019,14:13,35-03.61N,139-43.12E,200,25.744,,8.21
855,9/3/2019,14:14,35-03.34N,139-43.00E,200,26.113,,8.21
856,9/3/2019,14:15,35-03.07N,139-42.87E,200,26.325,,8.21
857,9/3/2019,14:16,35-02.79N,139-42.74E,201,26.277,,8.21
858,9/3/2019,14:17,35-02.51N,139-42.61E,201,26.231,,8.21
859,9/3/2019,14:18,35-02.23N,139-42.48E,200,26.231,,8.21
860,9/3/2019,14:19,35-01.95N,139-42.37E,198,26.043,,8.21
861,9/3/2019,14:20,35-01.68N,139-42.24E,202,25.769,,8.22
862,9/3/2019,14:21,35-01.41N,139-42.07E,207,25.922,,8.21
863,9/3/2019,14:22,35-01.15N,139-41.89E,210,25.626,,8.21
864,9/3/2019,14:23,35-00.91N,139-41.71E,210,25.453,,8.21
865,9/3/2019,14:24,35-00.66N,139-41.53E,212,25.678,,8.21
866,9/3/2019,14:25,35-00.42N,139-41.33E,214,25.795,,8.21
867,9/3/2019,14:26,35-00.19N,139-41.13E,215,25.842,,8.21
868,9/3/2019,14:27,34-59.95N,139-40.92E,215,25.829,,8.21
869,9/3/2019,14:28,34-59.71N,139-40.71E,215,25.772,,8.2
870,9/3/2019,14:29,34-59.47N,139-40.50E,216,25.76,,8.21
871,9/3/2019,14:30,34-59.24N,139-40.30E,215,25.905,,8.2
872,9/3/2019,14:31,34-58.99N,139-40.14E,201,26.037,,8.2
873,9/3/2019,14:32,34-58.70N,139-40.08E,182,26.074,,8.2
874,9/3/2019,14:33,34-58.43N,139-40.14E,164,26.598,,8.19
875,9/3/2019,14:34,34-58.16N,139-40.29E,152,26.408,,8.19
876,9/3/2019,14:35,34-57.90N,139-40.49E,143,26.418,,8.19
877,9/3/2019,14:36,34-57.68N,139-40.74E,135,26.643,,8.19
878,9/3/2019,14:37,34-57.46N,139-41.01E,135,26.769,,8.19
879,9/3/2019,14:38,34-57.23N,139-41.28E,136,26.801,,8.19
880,9/3/2019,14:39,34-57.00N,139-41.54E,136,26.79,,8.19
881,9/3/2019,14:40,34-56.76N,139-41.81E,139,26.783,,8.19
882,9/3/2019,14:41,34-56.49N,139-42.06E,143,26.91,,8.19
883,9/3/2019,14:42,34-56.24N,139-42.28E,145,26.9,,8.18
884,9/3/2019,14:43,34-55.98N,139-42.49E,145,26.79,,8.18
885,9/3/2019,14:44,34-55.71N,139-42.71E,146,26.789,,8.18
886,9/3/2019,14:45,34-55.44N,139-42.93E,145,26.723,,8.18
887,9/3/2019,14:46,34-55.17N,139-43.16E,144,26.682,,8.18
888,9/3/2019,14:47,34-54.91N,139-43.38E,144,26.76,,8.18
889,9/3/2019,14:48,34-54.65N,139-43.60E,145,26.818,,8.18
890,9/3/2019,14:49,34-54.39N,139-43.82E,145,26.907,,8.18
891,9/3/2019,14:50,34-54.12N,139-44.05E,145,26.957,,8.18
892,9/3/2019,14:51,34-53.85N,139-44.27E,145,27.037,,8.18
893,9/3/2019,14:52,34-53.60N,139-44.51E,141,26.852,,8.18
894,9/3/2019,14:53,34-53.36N,139-44.77E,137,26.802,,8.18
895,9/3/2019,14:54,34-53.13N,139-45.03E,136,26.937,,8.18
896,9/3/2019,14:55,34-52.90N,139-45.30E,136,27.014,,8.18
897,9/3/2019,14:56,34-52.67N,139-45.57E,137,27.031,,8.18
898,9/3/2019,14:57,34-52.45N,139-45.84E,130,26.911,,8.18
899,9/3/2019,14:58,34-52.26N,139-46.15E,125,26.911,,8.18
900,9/3/2019,14:59,34-52.08N,139-46.47E,124,26.985,,8.18
901,9/3/2019,15:00,34-51.90N,139-46.79E,123,27.107,,8.18
902,9/3/2019,15:01,34-51.73N,139-47.10E,124,27.127,,8.18
903,9/3/2019,15:02,34-51.54N,139-47.42E,125,27.357,,8.19
904,9/3/2019,15:03,34-51.37N,139-47.73E,122,26.979,,8.18
905,9/3/2019,15:04,34-51.28N,139-48.06E,100,27.08,,8.18
906,9/3/2019,15:05,34-51.26N,139-48.40E,90,26.476,,8.18
907,9/3/2019,15:06,34-51.27N,139-48.75E,88,26.115,,8.18
908,9/3/2019,15:07,34-51.28N,139-49.09E,89,25.711,,8.19
909,9/3/2019,15:08,34-51.28N,139-49.44E,89,25.577,,8.19
910,9/3/2019,15:09,34-51.28N,139-49.77E,90,25.562,,8.19
911,9/3/2019,15:10,34-51.28N,139-50.12E,90,25.382,,8.19
912,9/3/2019,15:11,34-51.28N,139-50.47E,91,25.358,,8.19
913,9/3/2019,15:12,34-51.28N,139-50.82E,90,25.35,,8.19
914,9/3/2019,15:13,34-51.28N,139-51.16E,89,25.347,,8.19
915,9/3/2019,15:14,34-51.28N,139-51.51E,89,25.322,,8.2
916,9/3/2019,15:15,34-51.29N,139-51.86E,89,25.35,,8.2
917,9/3/2019,15:16,34-51.29N,139-52.23E,89,25.348,,8.2
918,9/3/2019,15:17,34-51.30N,139-52.59E,88,25.372,,8.19
919,9/3/2019,15:18,34-51.31N,139-52.94E,88,25.465,,8.2
920,9/3/2019,15:19,34-51.32N,139-53.31E,88,25.68,,8.19
921,9/3/2019,15:20,34-51.32N,139-53.69E,88,25.893,,8.19
922,9/3/2019,15:21,34-51.33N,139-54.07E,89,25.75,,8.19
923,9/3/2019,15:22,34-51.33N,139-54.45E,89,25.667,,8.19
924,9/3/2019,15:23,34-51.34N,139-54.83E,88,25.567,,8.2
925,9/3/2019,15:24,34-51.34N,139-55.20E,90,24.59,,8.2
926,9/3/2019,15:25,34-51.34N,139-55.57E,89,24.432,,8.2
927,9/3/2019,15:26,34-51.35N,139-55.94E,90,24.864,,8.21
928,9/3/2019,15:27,34-51.34N,139-56.31E,91,24.957,,8.21
929,9/3/2019,15:28,34-51.33N,139-56.66E,92,24.62,,8.21
930,9/3/2019,15:29,34-51.32N,139-57.02E,91,24.741,,8.21
931,9/3/2019,15:30,34-51.30N,139-57.38E,95,24.695,,8.23
932,9/3/2019,15:31,34-51.33N,139-57.71E,73,24.604,,8.22
933,9/3/2019,15:32,34-51.45N,139-58.00E,61,23.34,,8.23
934,9/3/2019,15:33,34-51.58N,139-58.27E,60,23.743,,8.23
935,9/3/2019,15:34,34-51.72N,139-58.57E,61,23.454,,8.24
936,9/3/2019,15:35,34-51.85N,139-58.85E,61,23.539,,8.24
937,9/3/2019,15:36,34-51.98N,139-59.14E,61,23.755,,8.24
938,9/3/2019,15:37,34-52.12N,139-59.44E,61,23.999,,8.24
939,9/3/2019,15:38,34-52.24N,139-59.74E,62,24.295,,8.23
940,9/3/2019,15:39,34-52.37N,140-00.04E,62,23.999,,8.24
941,9/3/2019,15:40,34-52.50N,140-00.34E,62,24.02,,8.23
942,9/3/2019,15:41,34-52.63N,140-00.64E,62,23.865,,8.23
943,9/3/2019,15:42,34-52.77N,140-00.95E,62,23.711,,8.24
944,9/3/2019,15:43,34-52.90N,140-01.25E,63,23.74,,8.23
945,9/3/2019,15:44,34-53.02N,140-01.55E,63,23.724,,8.24
946,9/3/2019,15:45,34-53.15N,140-01.86E,62,23.639,,8.24
947,9/3/2019,15:46,34-53.28N,140-02.16E,62,23.468,,8.24
948,9/3/2019,15:47,34-53.41N,140-02.47E,62,23.25,,8.24
949,9/3/2019,15:48,34-53.54N,140-02.77E,63,23.104,,8.24
950,9/3/2019,15:49,34-53.67N,140-03.07E,62,23.056,,8.24
951,9/3/2019,15:50,34-53.80N,140-03.37E,62,23.192,,8.24
952,9/3/2019,15:51,34-53.94N,140-03.68E,62,23.236,,8.23
953,9/3/2019,15:52,34-54.07N,140-03.98E,62,23.259,,8.23
954,9/3/2019,15:53,34-54.20N,140-04.28E,61,23.222,,8.24
955,9/3/2019,15:54,34-54.35N,140-04.59E,60,23.252,,8.23
956,9/3/2019,15:55,34-54.49N,140-04.90E,61,23.487,,8.23
957,9/3/2019,15:56,34-54.63N,140-05.20E,61,23.479,,8.23
958,9/3/2019,15:57,34-54.77N,140-05.51E,60,23.71,,8.23
959,9/3/2019,15:58,34-54.91N,140-05.82E,61,24.164,,8.23
960,9/3/2019,15:59,34-55.07N,140-06.14E,60,24.204,,8.23
961,9/3/2019,16:00,34-55.21N,140-06.44E,60,23.905,,8.23
962,9/3/2019,16:01,34-55.35N,140-06.74E,59,23.906,,8.23
963,9/3/2019,16:02,34-55.50N,140-07.06E,59,23.853,,8.24
964,9/3/2019,16:03,34-55.66N,140-07.37E,59,23.946,,8.24
965,9/3/2019,16:04,34-55.81N,140-07.69E,59,24.161,,8.24
966,9/3/2019,16:05,34-55.96N,140-08.00E,60,24.406,,8.24
967,9/3/2019,16:06,34-56.11N,140-08.33E,60,24.706,,8.24
968,9/3/2019,16:07,34-56.27N,140-08.64E,60,24.807,,8.24
969,9/3/2019,16:08,34-56.42N,140-08.95E,58,24.785,,8.23
970,9/3/2019,16:09,34-56.59N,140-09.29E,60,24.781,,8.23
971,9/3/2019,16:10,34-56.73N,140-09.59E,59,25.097,,8.23
972,9/3/2019,16:11,34-56.89N,140-09.91E,59,25.036,,8.23
973,9/3/2019,16:12,34-57.04N,140-10.23E,59,24.925,,8.23
974,9/3/2019,16:13,34-57.20N,140-10.55E,59,25.086,,8.22
975,9/3/2019,16:14,34-57.36N,140-10.87E,58,25.278,,8.22
976,9/3/2019,16:15,34-57.51N,140-11.18E,58,25.349,,8.23
977,9/3/2019,16:16,34-57.67N,140-11.50E,59,25.369,,8.22
978,9/3/2019,16:17,34-57.83N,140-11.82E,58,25.348,,8.22
979,9/3/2019,16:18,34-57.99N,140-12.14E,59,25.301,,8.21
980,9/3/2019,16:19,34-58.14N,140-12.47E,60,25.334,,8.22
981,9/3/2019,16:20,34-58.29N,140-12.78E,58,25.362,,8.22
982,9/3/2019,16:21,34-58.44N,140-13.09E,58,25.444,,8.22
983,9/3/2019,16:22,34-58.60N,140-13.40E,59,25.586,,8.22
984,9/3/2019,16:23,34-58.75N,140-13.71E,59,25.696,,8.22
985,9/3/2019,16:24,34-58.90N,140-14.03E,59,25.816,,8.21
986,9/3/2019,16:25,34-59.06N,140-14.35E,59,26.042,,8.22
987,9/3/2019,16:26,34-59.21N,140-14.65E,60,26.285,,8.21
988,9/3/2019,16:27,34-59.36N,140-14.96E,59,26.297,,8.21
989,9/3/2019,16:28,34-59.51N,140-15.28E,59,26.233,,8.21
990,9/3/2019,16:29,34-59.66N,140-15.59E,60,26.082,,8.21
991,9/3/2019,16:30,34-59.80N,140-15.91E,60,25.919,,8.21
992,9/3/2019,16:31,34-59.95N,140-16.22E,60,25.802,,8.21
993,9/3/2019,16:32,35-00.10N,140-16.54E,60,25.749,,8.21
994,9/3/2019,16:33,35-00.24N,140-16.85E,60,25.484,,8.21
995,9/3/2019,16:34,35-00.39N,140-17.16E,60,25.37,,8.2
996,9/3/2019,16:35,35-00.54N,140-17.47E,60,24.784,,8.19
997,9/3/2019,16:36,35-00.68N,140-17.78E,60,24.59,,8.19
998,9/3/2019,16:37,35-00.83N,140-18.09E,59,25.181,,8.2
999,9/3/2019,16:38,35-00.98N,140-18.40E,60,25.359,,8.19
1000,9/3/2019,16:39,35-01.13N,140-18.70E,59,25.316,,8.18
1001,9/3/2019,16:40,35-01.28N,140-19.01E,59,25.503,,8.19
1002,9/3/2019,16:41,35-01.42N,140-19.32E,59,25.557,,8.18
1003,9/3/2019,16:42,35-01.57N,140-19.62E,59,25.259,,8.19
1004,9/3/2019,16:43,35-01.71N,140-19.92E,59,25.618,,8.19
1005,9/3/2019,16:44,35-01.86N,140-20.23E,59,25.742,,8.19
1006,9/3/2019,16:45,35-02.01N,140-20.53E,59,25.764,,8.19
1007,9/3/2019,16:46,35-02.16N,140-20.84E,59,25.583,,8.19
1008,9/3/2019,16:47,35-02.31N,140-21.15E,59,25.624,,8.2
1009,9/3/2019,16:48,35-02.45N,140-21.46E,60,25.566,,8.19
1010,9/3/2019,16:49,35-02.60N,140-21.77E,60,25.495,,8.19
1011,9/3/2019,16:50,35-02.75N,140-22.08E,59,25.362,,8.19
1012,9/3/2019,16:51,35-02.90N,140-22.39E,59,25.348,,8.2
1013,9/3/2019,16:52,35-03.04N,140-22.71E,60,25.31,,8.19
1014,9/3/2019,16:53,35-03.20N,140-23.03E,59,24.959,,8.2
1015,9/3/2019,16:54,35-03.34N,140-23.34E,60,24.595,,8.2
1016,9/3/2019,16:55,35-03.49N,140-23.66E,60,25.058,,8.2
1017,9/3/2019,16:56,35-03.64N,140-23.98E,60,25.453,,8.2
1018,9/3/2019,16:57,35-03.80N,140-24.31E,60,25.886,,8.19
1019,9/3/2019,16:58,35-03.94N,140-24.63E,60,25.401,,8.19
1020,9/3/2019,16:59,35-04.09N,140-24.95E,60,25.216,,8.19
1021,9/3/2019,17:00,35-04.24N,140-25.27E,60,25.301,,8.19
1022,9/3/2019,17:01,35-04.39N,140-25.59E,60,25.5,,8.19
1023,9/3/2019,17:02,35-04.54N,140-25.92E,60,25.82,,8.19
1024,9/3/2019,17:03,35-04.69N,140-26.24E,60,26.042,,8.19
1025,9/3/2019,17:04,35-04.84N,140-26.57E,61,26.078,,8.19
1026,9/3/2019,17:05,35-04.98N,140-26.89E,61,26.083,,8.19
1027,9/3/2019,17:06,35-05.14N,140-27.23E,61,25.944,,8.18
1028,9/3/2019,17:07,35-05.27N,140-27.54E,61,25.695,,8.18
1029,9/3/2019,17:08,35-05.42N,140-27.86E,61,25.339,,8.18
1030,9/3/2019,17:09,35-05.57N,140-28.20E,61,25.005,,8.18
1031,9/3/2019,17:10,35-05.71N,140-28.52E,61,25.186,,8.18
1032,9/3/2019,17:11,35-05.85N,140-28.84E,61,25.487,,8.18
1033,9/3/2019,17:12,35-05.99N,140-29.17E,61,25.561,,8.18
1034,9/3/2019,17:13,35-06.14N,140-29.50E,61,25.624,,8.18
1035,9/3/2019,17:14,35-06.28N,140-29.82E,61,25.672,,8.18
1036,9/3/2019,17:15,35-06.42N,140-30.14E,62,25.756,,8.19
1037,9/3/2019,17:16,35-06.56N,140-30.47E,62,25.849,,8.19
1038,9/3/2019,17:17,35-06.71N,140-30.78E,55,25.879,,8.19
1039,9/3/2019,17:18,35-06.92N,140-31.01E,39,25.822,,8.19
1040,9/3/2019,17:19,35-07.15N,140-31.23E,37,25.453,,8.19
1041,9/3/2019,17:20,35-07.39N,140-31.45E,36,25.84,,8.19
1042,9/3/2019,17:21,35-07.62N,140-31.66E,37,25.94,,8.19
1043,9/3/2019,17:22,35-07.85N,140-31.89E,38,25.253,,8.2
1044,9/3/2019,17:23,35-08.09N,140-32.11E,38,24.881,,8.21
1045,9/3/2019,17:24,35-08.33N,140-32.34E,38,24.799,,8.21
1046,9/3/2019,17:25,35-08.57N,140-32.57E,38,25.002,,8.21
1047,9/3/2019,17:26,35-08.80N,140-32.79E,37,25.372,,8.22
1048,9/3/2019,17:27,35-09.04N,140-33.02E,38,25.037,,8.21
1049,9/3/2019,17:28,35-09.27N,140-33.25E,38,24.132,,8.22
1050,9/3/2019,17:29,35-09.50N,140-33.47E,38,23.684,,8.22
1051,9/3/2019,17:30,35-09.74N,140-33.70E,38,22.785,,8.22
1052,9/3/2019,17:31,35-09.97N,140-33.92E,38,22.416,,8.22
1053,9/3/2019,17:32,35-10.20N,140-34.15E,38,22.101,,8.23
1054,9/3/2019,17:33,35-10.43N,140-34.37E,38,21.371,,8.22
1055,9/3/2019,17:34,35-10.66N,140-34.60E,38,21.357,,8.22
1056,9/3/2019,17:35,35-10.88N,140-34.81E,38,21.213,,8.21
1057,9/3/2019,17:36,35-11.11N,140-35.03E,38,21.306,,8.22
1058,9/3/2019,17:37,35-11.33N,140-35.25E,38,21.166,,8.21
1059,9/3/2019,17:38,35-11.57N,140-35.47E,38,20.933,,8.21
1060,9/3/2019,17:39,35-11.79N,140-35.69E,38,20.852,,8.2
1061,9/3/2019,17:40,35-12.02N,140-35.90E,38,20.852,,8.21
1062,9/3/2019,17:41,35-12.25N,140-36.12E,38,20.933,,8.21
1063,9/3/2019,17:42,35-12.48N,140-36.34E,36,21.034,,8.21
1064,9/3/2019,17:43,35-12.71N,140-36.54E,34,21.279,,8.2
1065,9/3/2019,17:44,35-12.96N,140-36.74E,34,21.215,,8.21
1066,9/3/2019,17:45,35-13.20N,140-36.95E,34,21.227,,8.2
1067,9/3/2019,17:46,35-13.42N,140-37.14E,34,21.24,,8.21
1068,9/3/2019,17:47,35-13.67N,140-37.34E,34,21.161,,8.21
1069,9/3/2019,17:48,35-13.90N,140-37.54E,34,21.15,,8.21
1070,9/3/2019,17:49,35-14.14N,140-37.74E,34,21.261,,8.22
1071,9/3/2019,17:50,35-14.37N,140-37.93E,33,21.232,,8.22
1072,9/3/2019,17:51,35-14.61N,140-38.12E,33,21.176,,8.22
1073,9/3/2019,17:52,35-14.86N,140-38.32E,33,21.104,,8.22
1074,9/3/2019,17:53,35-15.10N,140-38.51E,33,21.145,,8.22
1075,9/3/2019,17:54,35-15.34N,140-38.70E,33,21.212,,8.22
1076,9/3/2019,17:55,35-15.57N,140-38.89E,33,---,,8.22
1077,9/3/2019,17:56,35-15.83N,140-39.08E,32,21.354,,8.22
1078,9/3/2019,17:57,35-16.06N,140-39.27E,31,21.479,,8.22
1079,9/3/2019,17:58,35-16.30N,140-39.45E,32,21.565,,8.22
1080,9/3/2019,17:59,35-16.55N,140-39.64E,32,21.796,,8.23
1081,9/3/2019,18:00,35-16.80N,140-39.83E,32,21.885,,8.23
1082,9/3/2019,18:01,35-17.04N,140-40.01E,32,21.796,,8.23
1083,9/3/2019,18:02,35-17.28N,140-40.20E,31,21.902,,8.22
1084,9/3/2019,18:03,35-17.52N,140-40.38E,31,21.692,,8.23
1085,9/3/2019,18:04,35-17.77N,140-40.57E,31,21.409,,8.23
1086,9/3/2019,18:05,35-18.01N,140-40.75E,31,21.367,,8.23
1087,9/3/2019,18:06,35-18.26N,140-40.94E,31,21.557,,8.23
1088,9/3/2019,18:07,35-18.51N,140-41.12E,31,21.55,,8.22
1089,9/3/2019,18:08,35-18.74N,140-41.31E,32,21.47,,8.23
1090,9/3/2019,18:09,35-18.99N,140-41.50E,32,21.399,,8.22
1091,9/3/2019,18:10,35-19.24N,140-41.69E,32,21.037,,8.22
1092,9/3/2019,18:11,35-19.48N,140-41.87E,32,21.147,,8.23
1093,9/3/2019,18:12,35-19.72N,140-42.06E,32,21.161,,8.23
1094,9/3/2019,18:13,35-19.97N,140-42.25E,32,21.189,,8.23
1095,9/3/2019,18:14,35-20.22N,140-42.44E,32,21.334,,8.22
1096,9/3/2019,18:15,35-20.47N,140-42.63E,32,21.392,,8.22
1097,9/3/2019,18:16,35-20.71N,140-42.83E,32,21.573,,8.22
1098,9/3/2019,18:17,35-20.96N,140-43.02E,32,21.576,,8.22
1099,9/3/2019,18:18,35-21.21N,140-43.21E,32,---,,8.23
1100,9/3/2019,18:19,35-21.45N,140-43.39E,32,21.287,,8.23
1101,9/3/2019,18:20,35-21.69N,140-43.59E,32,21.234,,8.23
1102,9/3/2019,18:21,35-21.94N,140-43.78E,32,21.381,,8.23
1103,9/3/2019,18:22,35-22.18N,140-43.97E,32,21.507,,8.22
1104,9/3/2019,18:23,35-22.43N,140-44.15E,32,21.514,,8.23
1105,9/3/2019,18:24,35-22.67N,140-44.35E,32,21.576,,8.22
1106,9/3/2019,18:25,35-22.91N,140-44.53E,32,21.591,,8.23
1107,9/3/2019,18:26,35-23.16N,140-44.72E,32,21.464,,8.23
1108,9/3/2019,18:27,35-23.40N,140-44.91E,32,21.463,,8.23
1109,9/3/2019,18:28,35-23.65N,140-45.11E,32,21.58,,8.24
1110,9/3/2019,18:29,35-23.89N,140-45.30E,32,21.668,,8.23
1111,9/3/2019,18:30,35-24.14N,140-45.48E,32,21.626,,8.23
1112,9/3/2019,18:31,35-24.39N,140-45.68E,32,21.664,,8.23
1113,9/3/2019,18:32,35-24.64N,140-45.87E,32,21.816,,8.23
1114,9/3/2019,18:33,35-24.88N,140-46.05E,31,21.962,,8.23
1115,9/3/2019,18:34,35-25.14N,140-46.24E,31,22.002,,8.24
1116,9/3/2019,18:35,35-25.39N,140-46.43E,31,22.129,,8.24
1117,9/3/2019,18:36,35-25.64N,140-46.63E,31,22.259,,8.24
1118,9/3/2019,18:37,35-25.89N,140-46.81E,31,22.319,,8.24
1119,9/3/2019,18:38,35-26.16N,140-47.01E,30,---,,8.24
1120,9/3/2019,18:39,35-26.40N,140-47.19E,31,22.407,,8.24
1121,9/3/2019,18:40,35-26.66N,140-47.38E,31,22.393,,8.24
1122,9/3/2019,18:41,35-26.91N,140-47.57E,31,22.49,,8.24
1123,9/3/2019,18:42,35-27.17N,140-47.75E,26,22.07,,8.24
1124,9/3/2019,18:43,35-27.43N,140-47.89E,23,21.936,,8.23
1125,9/3/2019,18:44,35-27.69N,140-48.03E,23,21.999,,8.24
1126,9/3/2019,18:45,35-27.96N,140-48.17E,22,22.06,,8.23
1127,9/3/2019,18:46,35-28.23N,140-48.31E,23,22.176,,8.23
1128,9/3/2019,18:47,35-28.50N,140-48.45E,22,22.265,,8.23
1129,9/3/2019,18:48,35-28.78N,140-48.57E,19,22.332,,8.22
1130,9/3/2019,18:49,35-29.05N,140-48.68E,18,22.446,,8.22